Regional Weather Roundup
Issued by NWS

Home | Current Version | Previous Version | Text Only | Print | Product List | Glossary Off
Versions: 1 2 3 4 5 6 7 8 9 10 11 12 13 14 15 16 17 18 19 20 21 22 23 24 25 26 27 28 29 30 31 32 33 34 35 36 37 38 39 40 41 42 43 44 45 46 47 48 49 50

000
ASUS43 KMKX 162210
RWRWI

WISCONSIN REGIONAL WEATHER ROUNDUP
NATIONAL WEATHER SERVICE MILWAUKEE/SULLIVAN WI
400 PM CST SAT DEC 16 2017

NOTE: "FAIR" INDICATES FEW OR NO CLOUDS BELOW 12,000 FEET WITH NO
SIGNIFICANT WEATHER AND/OR OBSTRUCTIONS TO VISIBILITY.

WIZ001-002-006>008-014>016-023>028-162300-
NORTHWEST WISCONSIN

CITY           SKY/WX    TMP DP  RH WIND       PRES   REMARKS
SUPERIOR ARPT  CLOUDY    23  13  65 E7        30.03R WCI  14
ASHLAND        CLOUDY    21  11  65 NE5       30.04R WCI  15
HAYWARD        CLOUDY    20  11  68 VRB5      30.00R WCI  13
SIREN          CLOUDY    23  15  72 NE5       29.99R WCI  17
CUMBERLAND     CLOUDY    23  14  68 E5        29.98R WCI  17
RICE LAKE      CLOUDY    23  16  74 CALM      30.01R
CHETEK         CLOUDY    23  16  74 E3        30.00R
LADYSMITH      CLOUDY    23  15  70 E5        30.01R WCI  17
EAU CLAIRE     PTCLDY    24  16  71 NE5       29.99R WCI  18
MENOMONIE      PTCLDY    26  18  73 NE6       29.99R WCI  19
NEW RICHMOND   CLOUDY    26  18  71 E7        29.99R WCI  18
OSCEOLA        CLOUDY    27  19  71 E6        30.01R WCI  20
$$

WIZ003>005-009-010-017-018-162300-
NORTH CENTRAL WISCONSIN

CITY           SKY/WX    TMP DP  RH WIND       PRES   REMARKS
MANITOWISH WTR CLOUDY    18  10  71 E3        30.00R
ARBOR VITAE    CLOUDY    19  10  67 SE6       29.99R WCI  11
WOODRUFF       CLOUDY    19  10  67 SE6       29.99R WCI  11
RHINELANDER    CLOUDY    18   9  68 E7        30.00R WCI   9
EAGLE RIVER    CLOUDY    19   8  64 CALM      29.99R
LAND O LAKES   CLOUDY    19  10  68 CALM      30.01R
PHILLIPS       CLOUDY    18  11  74 E3        29.99R
TOMAHAWK       CLOUDY    18  11  75 CALM      30.01R
MEDFORD        CLOUDY    20  13  75 E6        29.98R WCI  12
MERRILL        CLOUDY    21  13  71 CALM      30.01R
$$

WIZ029-030-035-036-043>047-162300-
CENTRAL WISCONSIN

CITY           SKY/WX    TMP DP  RH WIND       PRES   REMARKS
WAUSAU         CLOUDY    21  14  74 E7        29.99R WCI  12
MOSINEE        CLOUDY    21  16  79 E8        29.99R WCI  12
MARSHFIELD     CLOUDY    23  18  81 E9        29.98R WCI  13
STEVENS POINT  CLOUDY    21  15  77 E9        30.00R WCI  11
WAUPACA        CLOUDY    27  18  70 NE3       30.01R
WAUTOMA        CLOUDY    25  19  78 NE7       30.01R WCI  17
WISC RAPIDS    CLOUDY    23  16  74 E7        30.01R WCI  15
CAMP DOUGLAS   CLOUDY    27  25  93 E6        29.97R WCI  20
$$

WIZ011>013-019>022-031-037>040-048>050-162300-
NORTHEAST WISCONSIN

CITY           SKY/WX    TMP DP  RH WIND       PRES   REMARKS
ANTIGO         CLOUDY    19  15  82 E7        30.00R WCI  10
SHAWANO        CLOUDY    24  19  79 NE7       30.04R WCI  16
OCONTO         CLOUDY    24  20  84 N6        30.05R WCI  17
STURGEON BAY   FLURRIES  26  22  84 NE8       30.06R WCI  18
GREEN BAY      CLOUDY    26  19  74 NE12      30.03R WCI  16
MANITOWOC      CLOUDY    29  22  75 E6        30.03R WCI  23
APPLETON       CLOUDY    27  18  69 NE9       29.99R WCI  17
CLINTONVILLE   CLOUDY    25  18  74 NE7       30.02R WCI  17
OSHKOSH        CLOUDY    26  20  77 NE7       30.00R WCI  18
$$

WIZ032>034-041-042-053>061-162300-
SOUTHWEST WISCONSIN

CITY           SKY/WX    TMP DP  RH WIND       PRES   REMARKS
LA CROSSE      CLOUDY    30  22  72 E7        29.96R WCI  23
SPARTA         CLOUDY    27  23  85 E9        29.98R WCI  18
VIROQUA        CLOUDY    29  25  86 CALM      29.93R
BOSCOBEL       CLEAR     38  26  62 NE5       29.94R WCI  34
PRAIRIE DU CHI CLEAR     42  25  50 NE6       29.91R
PLATTEVILLE    CLEAR     44  27  52 E3        29.90R
$$

WIZ056-057-062-063-064-067-068-162300-
SOUTH CENTRAL WISCONSIN

CITY           SKY/WX    TMP DP  RH WIND       PRES   REMARKS
REEDSBURG      CLOUDY    28  26  91 NE8       29.97R WCI  20
BARABOO/DELLS  CLOUDY    28  25  89 NE9       29.97R WCI  19
LONE ROCK      CLEAR     35  27  72 N10       29.95R WCI  27
MINERAL POINT  CLEAR     43  27  52 E5        29.91R
MADISON        CLOUDY    33  29  85 E13       29.96R WCI  24
MIDDLETON      CLOUDY    35  31  85 NE8       29.95R WCI  29
WATERTOWN      CLOUDY    32  32 100 NE9       29.95R WCI  24
MONROE         CLEAR     41  27  56 CALM      29.91R
JANESVILLE     CLEAR     45  25  45 CALM      29.91R
$$

WIZ051-052-058>065-066-070>072-162300-
SOUTHEAST WISCONSIN

CITY           SKY/WX    TMP DP  RH WIND       PRES   REMARKS
MILWAUKEE      MOCLDY    37  34  89 NE10      29.96R WCI  30
WAUKESHA       CLOUDY    32  28  86 NE10      29.96R WCI  24
MILWAUKEE/TIMM CLOUDY    34  28  80 NE7       29.98R WCI  28
RACINE         CLEAR     36  28  73 NE6       29.97R WCI  31
BURLINGTON     CLEAR     50  46  86 NE7       29.94R
KENOSHA        CLEAR     37  26  64 E9        29.95R WCI  30
FOND DU LAC    CLOUDY    30  22  72 E9        30.00R WCI  22
SHEBOYGAN      CLOUDY    29  23  78 NE12      30.01R WCI  19
WEST BEND      CLOUDY    30  28  93 NE6       29.99R WCI  24
JUNEAU         CLOUDY    30  27  90 NE10      29.98R WCI  21
$$

LSZ147-162-162300-
LAKE SUPERIOR

STATION/POSITION TIME  TEMP    WIND        PRES    WAVE
                       AIR SEA DIR/SP/G            HT/PER
                 (UTC) (F)     (DEG/KT/KT) (MB)    (FT/S)
DEVILS ISLAND    2200   25      90/ 13/ 15 1019.0R
SAXON HARBOR     2130   23                 1016.9R
$$

LMZ867-665-643>646-162300-
LAKE MICHIGAN

STATION/POSITION TIME  TEMP    WIND        PRES    WAVE
                       AIR SEA DIR/SP/G            HT/PER
                 (UTC) (F)     (DEG/KT/KT) (MB)    (FT/S)
NORTHPORT PIER   2140   25      90/ 12/ 15 1018.3R
KEWAUNEE LAKESHO 2142   30     100/  8/ 11 1015.9R
SHEBOYGAN LAKESH 2200   31      50/ 15/ 16 1017.1R
PORT WASHINGTON  2130   34      70/  8/ 11 1016.3R
MILWAUKEE LAKESH 2150   36      60/ 14/ 15   N/A
KENOSHA   LAKESH 2200   36      30/  6/  6 1014.6
$$

TC  - TEMPERATURE IN CELSIUS
VSB - VISIBILITY IN STATUTE MILES
WCI - WIND CHILL INDEX
HX  - HEAT INDEX




USA.gov is the U.S. government's official web portal to all federal, state and local government web resources and services.